QPF
0.07 0.13 0.16 0.23 0.33 0.38 0.36 0.35 0.39 0.38 0.33 0.27 0.21 0.14 0.07 0.04 0.04 0.04 0.03 0.03 0.03 0.04 0.04 0.04 0.04 0.04 0.03 0.02 0.02 0.02 0.02 0.01 0.01 0.00 0.00 0.00 0.00 0.00 0.00 0.00 0.00 0.00 0.00
0.04 0.10 0.17 0.20 0.25 0.34 0.32 0.31 0.31 0.36 0.35 0.30 0.27 0.19 0.12 0.08 0.07 0.06 0.06 0.06 0.07 0.07 0.08 0.07 0.07 0.06 0.04 0.04 0.05 0.04 0.03 0.01 0.01 0.01 0.01 0.00 0.00 0.00 0.00 0.00 0.00 0.00 0.00
0.03 0.06 0.14 0.22 0.20 0.25 0.32 0.31 0.26 0.27 0.34 0.35 0.34 0.34 0.24 0.14 0.09 0.08 0.10 0.11 0.12 0.11 0.09 0.07 0.07 0.07 0.06 0.06 0.06 0.05 0.03 0.03 0.02 0.02 0.01 0.01 0.01 0.01 0.00 0.00 0.00 0.00 0.00
0.02 0.04 0.07 0.15 0.16 0.17 0.23 0.32 0.31 0.27 0.32 0.43 0.43 0.41 0.35 0.22 0.14 0.13 0.13 0.14 0.14 0.12 0.11 0.09 0.09 0.08 0.08 0.07 0.07 0.06 0.05 0.04 0.03 0.02 0.02 0.02 0.02 0.02 0.01 0.01 0.00 0.00 0.00
0.01 0.02 0.05 0.09 0.11 0.13 0.16 0.23 0.31 0.32 0.30 0.31 0.35 0.38 0.38 0.30 0.26 0.22 0.17 0.15 0.13 0.12 0.12 0.12 0.11 0.11 0.11 0.11 0.10 0.08 0.07 0.06 0.05 0.04 0.03 0.02 0.02 0.02 0.02 0.01 0.01 0.01 0.01
0.02 0.02 0.03 0.07 0.08 0.08 0.11 0.15 0.21 0.27 0.29 0.26 0.26 0.28 0.29 0.30 0.26 0.22 0.20 0.18 0.17 0.16 0.16 0.18 0.18 0.17 0.15 0.14 0.14 0.12 0.12 0.11 0.09 0.07 0.05 0.03 0.03 0.03 0.02 0.02 0.02 0.01 0.01
0.02 0.02 0.03 0.06 0.07 0.07 0.06 0.09 0.12 0.19 0.24 0.24 0.20 0.20 0.21 0.23 0.24 0.18 0.16 0.16 0.16 0.17 0.18 0.19 0.21 0.21 0.19 0.16 0.15 0.14 0.14 0.13 0.10 0.07 0.05 0.04 0.03 0.02 0.01 0.02 0.01 0.01 0.01
0.03 0.03 0.04 0.04 0.07 0.07 0.06 0.05 0.06 0.10 0.17 0.19 0.18 0.17 0.19 0.21 0.21 0.21 0.17 0.15 0.14 0.14 0.16 0.18 0.19 0.20 0.19 0.18 0.18 0.17 0.15 0.12 0.09 0.07 0.05 0.04 0.03 0.02 0.01 0.01 0.01 0.01 0.00
0.03 0.03 0.03 0.03 0.06 0.07 0.07 0.05 0.05 0.06 0.09 0.14 0.15 0.15 0.17 0.20 0.20 0.21 0.21 0.18 0.16 0.14 0.14 0.15 0.16 0.15 0.16 0.17 0.17 0.15 0.13 0.11 0.09 0.07 0.06 0.04 0.03 0.02 0.02 0.01 0.01 0.01 0.01
0.02 0.02 0.02 0.01 0.02 0.04 0.05 0.06 0.05 0.07 0.07 0.07 0.10 0.12 0.14 0.16 0.18 0.18 0.20 0.19 0.15 0.13 0.12 0.12 0.11 0.11 0.11 0.11 0.12 0.13 0.12 0.10 0.07 0.06 0.05 0.04 0.03 0.02 0.01 0.01 0.01 0.01 0.01
0.01 0.01 0.01 0.01 0.01 0.01 0.02 0.05 0.05 0.06 0.08 0.07 0.08 0.10 0.11 0.12 0.14 0.15 0.15 0.15 0.13 0.12 0.11 0.11 0.11 0.10 0.09 0.07 0.07 0.06 0.06 0.06 0.04 0.04 0.03 0.02 0.02 0.01 0.01 0.01 0.00 0.01 0.01
0.01 0.00 0.00 0.00 0.01 0.01 0.01 0.02 0.03 0.03 0.05 0.06 0.06 0.07 0.08 0.09 0.10 0.09 0.11 0.11 0.11 0.11 0.10 0.10 0.10 0.09 0.07 0.06 0.06 0.04 0.04 0.03 0.02 0.02 0.02 0.01 0.01 0.01 0.01 0.01 0.01 0.01 0.01
0.01 0.01 0.00 0.00 0.01 0.01 0.01 0.01 0.01 0.01 0.01 0.03 0.04 0.05 0.05 0.06 0.07 0.06 0.05 0.06 0.06 0.06 0.06 0.07 0.06 0.05 0.05 0.05 0.05 0.05 0.04 0.03 0.02 0.02 0.02 0.02 0.01 0.01 0.01 0.01 0.01 0.01 0.01
0.01 0.00 0.00 0.00 0.01 0.01 0.01 0.01 0.01 0.01 0.01 0.02 0.02 0.03 0.03 0.03 0.04 0.05 0.04 0.03 0.03 0.03 0.04 0.04 0.04 0.04 0.04 0.04 0.03 0.03 0.03 0.03 0.03 0.02 0.02 0.02 0.02 0.01 0.01 0.01 0.01 0.01 0.01
0.01 0.01 0.01 0.01 0.01 0.01 0.01 0.01 0.01 0.01 0.01 0.01 0.02 0.02 0.02 0.02 0.02 0.03 0.03 0.03 0.03 0.02 0.03 0.02 0.03 0.03 0.03 0.03 0.02 0.02 0.02 0.02 0.03 0.02 0.02 0.02 0.02 0.02 0.01 0.01 0.01 0.01 0.01
0.01 0.01 0.01 0.01 0.01 0.01 0.01 0.01 0.01 0.00 0.01 0.01 0.01 0.02 0.02 0.02 0.01 0.01 0.02 0.02 0.02 0.02 0.02 0.02 0.02 0.02 0.02 0.02 0.02 0.02 0.02 0.02 0.02 0.02 0.02 0.02 0.02 0.01 0.01 0.01 0.00 0.00 0.00
0.01 0.01 0.01 0.01 0.01 0.01 0.01 0.01 0.01 0.01 0.01 0.01 0.01 0.01 0.01 0.01 0.01 0.01 0.01 0.01 0.02 0.02 0.02 0.02 0.02 0.02 0.02 0.02 0.02 0.02 0.01 0.01 0.01 0.01 0.01 0.00 0.00 0.00 0.00 0.00 0.00 0.00 0.00
0.01 0.01 0.01 0.01 0.01 0.01 0.01 0.01 0.01 0.01 0.01 0.01 0.01 0.01 0.01 0.00 0.01 0.01 0.01 0.01 0.02 0.02 0.02 0.02 0.02 0.02 0.02 0.02 0.02 0.02 0.01 0.01 0.01 0.01 0.01 0.00 0.00 0.00 0.00 0.00 0.00 0.00 0.00
0.01 0.01 0.01 0.01 0.01 0.02 0.01 0.01 0.01 0.01 0.01 0.01 0.01 0.01 0.01 0.01 0.01 0.01 0.01 0.01 0.02 0.02 0.02 0.02 0.02 0.03 0.03 0.03 0.02 0.01 0.01 0.00 0.00 0.00 0.00 0.00 0.00 0.00 0.00 0.00 0.00 0.00 0.00
0.01 0.01 0.01 0.01 0.01 0.02 0.01 0.01 0.01 0.01 0.01 0.01 0.01 0.01 0.01 0.01 0.01 0.01 0.01 0.02 0.02 0.02 0.03 0.03 0.03 0.03 0.03 0.03 0.02 0.02 0.01 0.00 0.00 0.00 0.00 0.00 0.00 0.00 0.00 0.00 0.00 0.00 0.00
0.02 0.01 0.01 0.01 0.02 0.02 0.02 0.01 0.01 0.01 0.01 0.01 0.01 0.01 0.01 0.01 0.01 0.02 0.02 0.02 0.03 0.03 0.03 0.03 0.03 0.03 0.02 0.02 0.02 0.02 0.01 0.01 0.00 0.00 0.00 0.00 0.00 0.00 0.00 0.00 0.00 0.00 0.00
0.02 0.02 0.02 0.02 0.02 0.02 0.02 0.02 0.01 0.01 0.01 0.01 0.01 0.01 0.02 0.02 0.02 0.02 0.02 0.02 0.03 0.03 0.03 0.04 0.04 0.03 0.03 0.02 0.02 0.02 0.01 0.01 0.00 0.00 0.00 0.00 0.00 0.00 0.00 0.00 0.00 0.00 0.00
0.01 0.01 0.02 0.02 0.03 0.03 0.02 0.03 0.02 0.01 0.01 0.01 0.01 0.01 0.02 0.03 0.03 0.04 0.04 0.04 0.04 0.04 0.04 0.04 0.04 0.04 0.03 0.03 0.03 0.02 0.02 0.01 0.00 0.00 0.00 0.00 0.00 0.00 0.00 0.00 0.00 0.00 0.00
0.01 0.02 0.02 0.02 0.02 0.02 0.03 0.03 0.03 0.02 0.02 0.02 0.01 0.02 0.01 0.02 0.02 0.03 0.03 0.04 0.04 0.04 0.04 0.04 0.04 0.03 0.03 0.03 0.02 0.02 0.01 0.01 0.01 0.01 0.00 0.00 0.00 0.00 0.00 0.00 0.00 0.00 0.00
0.02 0.02 0.02 0.02 0.02 0.02 0.02 0.03 0.03 0.03 0.03 0.03 0.03 0.02 0.02 0.02 0.03 0.03 0.04 0.05 0.04 0.04 0.04 0.03 0.03 0.03 0.03 0.03 0.03 0.02 0.02 0.01 0.01 0.01 0.01 0.00 0.00 0.00 0.00 0.00 0.00 0.00 0.00
0.02 0.02 0.03 0.03 0.03 0.03 0.03 0.03 0.03 0.03 0.03 0.03 0.03 0.03 0.03 0.03 0.03 0.04 0.04 0.05 0.05 0.05 0.04 0.03 0.03 0.03 0.03 0.03 0.02 0.02 0.02 0.01 0.01 0.01 0.01 0.01 0.01 0.00 0.00 0.00 0.00 0.00 0.00
MSLP
1008.15 1008.01 1007.93 1007.92 1008.03 1008.27 1008.63 1009.14 1009.76 1010.47 1011.24 1012.04 1012.83 1013.57 1014.24 1014.84 1015.36 1015.81 1016.23 1016.64 1017.06 1017.51 1017.98 1018.47 1018.97 1019.44 1019.86 1020.22 1020.51 1020.73 1020.88 1020.99 1021.05 1021.09 1021.12 1021.13 1021.12 1021.09 1021.05 1021.00 1020.95 1020.91 1020.91
1008.17 1008.11 1008.07 1008.09 1008.21 1008.44 1008.81 1009.30 1009.91 1010.61 1011.37 1012.13 1012.88 1013.57 1014.20 1014.75 1015.24 1015.68 1016.10 1016.52 1016.96 1017.42 1017.90 1018.39 1018.86 1019.30 1019.69 1020.02 1020.29 1020.50 1020.67 1020.80 1020.91 1020.99 1021.05 1021.08 1021.08 1021.06 1021.01 1020.95 1020.90 1020.88 1020.90
1008.06 1008.07 1008.09 1008.15 1008.30 1008.55 1008.93 1009.43 1010.04 1010.73 1011.46 1012.20 1012.91 1013.56 1014.15 1014.68 1015.15 1015.59 1016.02 1016.46 1016.91 1017.38 1017.85 1018.31 1018.74 1019.13 1019.46 1019.75 1019.99 1020.19 1020.37 1020.54 1020.69 1020.82 1020.93 1021.00 1021.03 1021.02 1020.98 1020.93 1020.89 1020.88 1020.93
1007.84 1007.91 1007.99 1008.10 1008.28 1008.57 1008.97 1009.48 1010.09 1010.77 1011.49 1012.20 1012.88 1013.50 1014.07 1014.58 1015.05 1015.50 1015.95 1016.40 1016.87 1017.33 1017.78 1018.20 1018.58 1018.91 1019.19 1019.42 1019.63 1019.83 1020.03 1020.23 1020.43 1020.62 1020.78 1020.90 1020.96 1020.97 1020.95 1020.91 1020.88 1020.90 1020.96
1007.56 1007.68 1007.80 1007.95 1008.18 1008.49 1008.91 1009.44 1010.05 1010.73 1011.42 1012.11 1012.76 1013.36 1013.91 1014.42 1014.90 1015.36 1015.83 1016.31 1016.78 1017.24 1017.67 1018.06 1018.38 1018.66 1018.88 1019.07 1019.26 1019.46 1019.68 1019.92 1020.18 1020.42 1020.63 1020.80 1020.89 1020.93 1020.92 1020.89 1020.87 1020.90 1020.97
1007.30 1007.44 1007.58 1007.76 1008.01 1008.35 1008.78 1009.31 1009.92 1010.58 1011.25 1011.91 1012.53 1013.11 1013.64 1014.15 1014.63 1015.12 1015.61 1016.11 1016.60 1017.06 1017.48 1017.84 1018.13 1018.36 1018.55 1018.72 1018.90 1019.11 1019.36 1019.64 1019.95 1020.25 1020.51 1020.71 1020.84 1020.90 1020.90 1020.88 1020.86 1020.88 1020.96
1007.13 1007.26 1007.41 1007.59 1007.85 1008.19 1008.62 1009.14 1009.73 1010.35 1010.99 1011.60 1012.19 1012.73 1013.25 1013.75 1014.24 1014.74 1015.26 1015.78 1016.28 1016.76 1017.18 1017.53 1017.80 1018.02 1018.20 1018.37 1018.56 1018.79 1019.08 1019.41 1019.76 1020.11 1020.42 1020.66 1020.81 1020.88 1020.89 1020.87 1020.84 1020.85 1020.92
1007.13 1007.23 1007.35 1007.52 1007.76 1008.08 1008.49 1008.97 1009.52 1010.09 1010.67 1011.23 1011.76 1012.27 1012.75 1013.23 1013.72 1014.23 1014.77 1015.31 1015.84 1016.33 1016.77 1017.13 1017.42 1017.65 1017.85 1018.04 1018.26 1018.53 1018.86 1019.23 1019.63 1020.02 1020.36 1020.63 1020.80 1020.89 1020.90 1020.87 1020.84 1020.83 1020.88
1007.36 1007.40 1007.47 1007.60 1007.80 1008.09 1008.45 1008.88 1009.37 1009.87 1010.38 1010.86 1011.33 1011.77 1012.21 1012.66 1013.14 1013.65 1014.19 1014.75 1015.30 1015.82 1016.29 1016.68 1017.00 1017.27 1017.51 1017.75 1018.02 1018.33 1018.70 1019.12 1019.55 1019.97 1020.34 1020.63 1020.83 1020.92 1020.94 1020.91 1020.87 1020.85 1020.89
1007.83 1007.80 1007.82 1007.89 1008.04 1008.27 1008.57 1008.94 1009.34 1009.76 1010.18 1010.58 1010.96 1011.34 1011.72 1012.13 1012.59 1013.08 1013.62 1014.19 1014.76 1015.31 1015.80 1016.24 1016.61 1016.93 1017.23 1017.52 1017.84 1018.20 1018.62 1019.07 1019.54 1019.98 1020.37 1020.68 1020.89 1021.00 1021.03 1021.00 1020.96 1020.94 1020.95
1008.53 1008.44 1008.40 1008.42 1008.51 1008.67 1008.91 1009.19 1009.51 1009.84 1010.16 1010.47 1010.77 1011.07 1011.39 1011.76 1012.17 1012.65 1013.17 1013.74 1014.32 1014.88 1015.41 1015.89 1016.31 1016.69 1017.04 1017.39 1017.77 1018.18 1018.63 1019.11 1019.59 1020.05 1020.46 1020.78 1021.00 1021.13 1021.18 1021.17 1021.13 1021.11 1021.11
1009.43 1009.28 1009.18 1009.15 1009.18 1009.28 1009.44 1009.65 1009.88 1010.11 1010.35 1010.57 1010.79 1011.03 1011.29 1011.61 1011.99 1012.43 1012.94 1013.49 1014.07 1014.64 1015.19 1015.70 1016.16 1016.58 1016.99 1017.39 1017.81 1018.26 1018.74 1019.24 1019.73 1020.20 1020.62 1020.95 1021.19 1021.34 1021.40 1021.41 1021.39 1021.37 1021.37
1010.46 1010.26 1010.12 1010.03 1010.02 1010.06 1010.15 1010.28 1010.43 1010.58 1010.73 1010.88 1011.04 1011.22 1011.45 1011.72 1012.07 1012.49 1012.98 1013.51 1014.07 1014.64 1015.19 1015.71 1016.20 1016.66 1017.10 1017.54 1017.99 1018.47 1018.96 1019.47 1019.97 1020.44 1020.85 1021.19 1021.45 1021.61 1021.70 1021.72 1021.72 1021.70 1021.70
1011.54 1011.31 1011.13 1011.01 1010.94 1010.93 1010.96 1011.01 1011.09 1011.17 1011.26 1011.35 1011.47 1011.62 1011.82 1012.08 1012.41 1012.82 1013.28 1013.80 1014.34 1014.89 1015.43 1015.94 1016.44 1016.91 1017.37 1017.83 1018.30 1018.79 1019.29 1019.80 1020.29 1020.75 1021.17 1021.51 1021.76 1021.94 1022.04 1022.09 1022.09 1022.08 1022.07
1012.62 1012.37 1012.16 1012.00 1011.88 1011.81 1011.78 1011.76 1011.77 1011.79 1011.83 1011.89 1011.99 1012.13 1012.33 1012.60 1012.94 1013.34 1013.79 1014.29 1014.81 1015.33 1015.85 1016.35 1016.83 1017.29 1017.76 1018.22 1018.69 1019.18 1019.68 1020.18 1020.67 1021.12 1021.52 1021.85 1022.11 1022.30 1022.41 1022.46 1022.47 1022.46 1022.44
1013.63 1013.36 1013.12 1012.92 1012.75 1012.63 1012.52 1012.44 1012.38 1012.35 1012.35 1012.40 1012.49 1012.65 1012.88 1013.17 1013.53 1013.95 1014.41 1014.90 1015.40 1015.89 1016.38 1016.85 1017.30 1017.75 1018.19 1018.65 1019.11 1019.60 1020.08 1020.57 1021.04 1021.48 1021.87 1022.19 1022.45 1022.63 1022.75 1022.81 1022.82 1022.80 1022.76
1014.55 1014.25 1013.97 1013.73 1013.50 1013.31 1013.13 1012.98 1012.86 1012.78 1012.75 1012.79 1012.90 1013.09 1013.35 1013.69 1014.10 1014.55 1015.02 1015.51 1016.00 1016.47 1016.92 1017.35 1017.78 1018.19 1018.61 1019.05 1019.49 1019.96 1020.43 1020.90 1021.36 1021.78 1022.15 1022.47 1022.72 1022.91 1023.02 1023.08 1023.08 1023.06 1023.01
1015.33 1015.00 1014.69 1014.39 1014.10 1013.83 1013.57 1013.35 1013.17 1013.04 1012.99 1013.02 1013.15 1013.38 1013.69 1014.09 1014.54 1015.03 1015.54 1016.03 1016.51 1016.96 1017.38 1017.78 1018.16 1018.55 1018.94 1019.34 1019.77 1020.22 1020.67 1021.13 1021.57 1021.98 1022.34 1022.65 1022.90 1023.07 1023.19 1023.24 1023.25 1023.22 1023.17
1015.99 1015.62 1015.26 1014.90 1014.55 1014.20 1013.87 1013.57 1013.33 1013.16 1013.08 1013.11 1013.26 1013.52 1013.88 1014.33 1014.83 1015.36 1015.90 1016.41 1016.88 1017.32 1017.71 1018.08 1018.42 1018.77 1019.13 1019.51 1019.91 1020.34 1020.79 1021.23 1021.66 1022.06 1022.41 1022.71 1022.95 1023.13 1023.25 1023.30 1023.32 1023.29 1023.24
1016.50 1016.10 1015.69 1015.28 1014.87 1014.46 1014.06 1013.70 1013.41 1013.19 1013.09 1013.11 1013.27 1013.55 1013.95 1014.44 1014.98 1015.55 1016.10 1016.63 1017.10 1017.52 1017.90 1018.23 1018.55 1018.87 1019.20 1019.55 1019.94 1020.35 1020.78 1021.21 1021.63 1022.02 1022.37 1022.67 1022.91 1023.09 1023.21 1023.28 1023.30 1023.28 1023.25
1016.88 1016.45 1016.01 1015.56 1015.10 1014.64 1014.20 1013.79 1013.46 1013.21 1013.09 1013.10 1013.26 1013.55 1013.97 1014.47 1015.04 1015.62 1016.19 1016.72 1017.19 1017.60 1017.96 1018.27 1018.57 1018.86 1019.17 1019.50 1019.87 1020.26 1020.68 1021.10 1021.51 1021.90 1022.25 1022.55 1022.79 1022.97 1023.10 1023.19 1023.22 1023.23 1023.21
1017.11 1016.67 1016.21 1015.74 1015.26 1014.78 1014.32 1013.89 1013.54 1013.27 1013.14 1013.14 1013.28 1013.57 1013.98 1014.49 1015.05 1015.63 1016.20 1016.72 1017.19 1017.59 1017.94 1018.24 1018.52 1018.80 1019.09 1019.41 1019.76 1020.15 1020.55 1020.96 1021.36 1021.74 1022.08 1022.38 1022.63 1022.82 1022.96 1023.05 1023.11 1023.14 1023.15
1017.22 1016.76 1016.30 1015.83 1015.36 1014.90 1014.44 1014.02 1013.67 1013.40 1013.26 1013.24 1013.38 1013.65 1014.04 1014.52 1015.06 1015.62 1016.17 1016.68 1017.14 1017.54 1017.87 1018.17 1018.45 1018.72 1019.00 1019.32 1019.66 1020.03 1020.42 1020.81 1021.20 1021.57 1021.90 1022.19 1022.44 1022.63 1022.78 1022.89 1022.96 1023.02 1023.05
1017.19 1016.74 1016.29 1015.85 1015.41 1014.97 1014.55 1014.16 1013.83 1013.59 1013.44 1013.42 1013.54 1013.78 1014.13 1014.58 1015.08 1015.61 1016.13 1016.62 1017.06 1017.45 1017.79 1018.09 1018.36 1018.64 1018.93 1019.23 1019.57 1019.92 1020.30 1020.67 1021.04 1021.39 1021.71 1021.99 1022.22 1022.41 1022.56 1022.68 1022.77 1022.84 1022.91
1017.07 1016.63 1016.21 1015.80 1015.40 1015.01 1014.64 1014.30 1014.01 1013.79 1013.66 1013.64 1013.73 1013.94 1014.25 1014.64 1015.10 1015.58 1016.06 1016.52 1016.95 1017.33 1017.67 1017.98 1018.27 1018.55 1018.84 1019.15 1019.47 1019.82 1020.17 1020.52 1020.86 1021.18 1021.47 1021.73 1021.95 1022.13 1022.28 1022.40 1022.50 1022.59 1022.68
1016.90 1016.47 1016.07 1015.70 1015.35 1015.02 1014.70 1014.42 1014.17 1013.99 1013.87 1013.85 1013.92 1014.09 1014.35 1014.69 1015.09 1015.52 1015.95 1016.38 1016.79 1017.16 1017.51 1017.83 1018.13 1018.43 1018.72 1019.03 1019.34 1019.67 1019.99 1020.31 1020.62 1020.91 1021.16 1021.39 1021.59 1021.75 1021.89 1022.02 1022.13 1022.24 1022.34
Thickness
5614 5620 5625 5632 5636 5641 5644 5648 5651 5655 5658 5659 5661 5663 5666 5667 5668 5669 5669 5668 5668 5667 5666 5665 5665 5664 5663 5662 5661 5660 5658 5658 5658 5656 5656 5657 5656 5655 5653 5651 5650 5648 5645
5608 5614 5619 5626 5632 5637 5640 5641 5644 5649 5653 5655 5658 5659 5661 5662 5663 5663 5663 5663 5663 5662 5661 5660 5660 5659 5658 5656 5656 5654 5653 5653 5652 5652 5650 5650 5651 5649 5646 5644 5642 5641 5638
5602 5608 5613 5619 5626 5631 5634 5637 5639 5643 5647 5650 5651 5651 5652 5653 5654 5656 5657 5658 5658 5658 5657 5656 5655 5654 5653 5652 5651 5650 5648 5647 5646 5647 5645 5643 5645 5645 5642 5639 5636 5634 5632
5597 5603 5607 5613 5619 5624 5629 5632 5635 5638 5642 5646 5648 5648 5647 5649 5652 5653 5653 5653 5652 5652 5652 5651 5650 5649 5649 5648 5646 5645 5644 5642 5641 5640 5639 5639 5639 5636 5636 5633 5630 5627 5624
5591 5596 5601 5607 5612 5617 5622 5626 5630 5634 5637 5641 5643 5643 5644 5646 5647 5646 5646 5647 5647 5646 5647 5646 5645 5644 5643 5643 5641 5639 5638 5638 5637 5635 5633 5631 5630 5629 5627 5627 5625 5620 5617
5585 5591 5596 5600 5605 5610 5614 5619 5622 5628 5631 5633 5636 5638 5638 5639 5639 5640 5640 5641 5641 5642 5642 5641 5640 5639 5638 5638 5636 5633 5632 5632 5630 5629 5627 5626 5624 5623 5620 5619 5618 5616 5612
5580 5585 5589 5594 5599 5603 5608 5612 5617 5620 5624 5626 5630 5632 5634 5634 5635 5637 5636 5636 5636 5637 5638 5636 5635 5634 5633 5631 5629 5627 5626 5624 5622 5621 5620 5619 5618 5616 5614 5611 5610 5608 5604
5573 5578 5582 5586 5592 5596 5600 5606 5610 5614 5617 5620 5623 5626 5629 5629 5630 5632 5633 5633 5633 5634 5633 5631 5630 5628 5626 5624 5622 5620 5619 5616 5614 5613 5612 5610 5608 5607 5605 5603 5600 5598 5597
5565 5570 5575 5579 5584 5589 5594 5598 5602 5605 5609 5612 5615 5619 5621 5622 5623 5625 5627 5627 5626 5626 5625 5624 5623 5621 5619 5616 5615 5613 5611 5609 5607 5605 5603 5601 5599 5597 5595 5593 5591 5589 5589
5557 5562 5566 5571 5576 5581 5586 5590 5593 5596 5600 5604 5609 5612 5614 5616 5616 5617 5618 5619 5619 5617 5616 5615 5614 5612 5610 5609 5607 5605 5603 5601 5598 5596 5594 5592 5590 5588 5585 5582 5580 5578 5577
5547 5551 5556 5560 5565 5570 5575 5580 5583 5587 5591 5596 5600 5603 5604 5606 5607 5608 5609 5610 5610 5609 5607 5606 5604 5603 5602 5600 5598 5596 5594 5591 5588 5586 5585 5583 5581 5578 5576 5573 5570 5567 5565
5536 5541 5545 5550 5554 5558 5563 5568 5573 5577 5582 5586 5590 5593 5595 5596 5597 5598 5599 5601 5600 5599 5599 5597 5596 5594 5592 5591 5588 5585 5583 5582 5579 5577 5575 5572 5570 5568 5565 5563 5560 5557 5554
5526 5530 5535 5539 5543 5547 5552 5557 5562 5566 5570 5575 5580 5583 5585 5587 5587 5588 5588 5589 5590 5590 5588 5588 5587 5585 5583 5581 5578 5576 5574 5572 5570 5567 5565 5562 5559 5557 5554 5551 5549 5546 5543
5517 5520 5524 5529 5533 5537 5541 5546 5551 5554 5558 5563 5568 5572 5574 5576 5577 5577 5577 5578 5579 5579 5578 5577 5576 5574 5573 5570 5568 5565 5563 5561 5558 5555 5553 5551 5548 5546 5543 5540 5537 5535 5532
5508 5510 5514 5518 5523 5527 5531 5535 5538 5543 5547 5552 5556 5559 5561 5563 5564 5565 5565 5565 5566 5566 5566 5565 5564 5562 5560 5559 5557 5554 5552 5549 5546 5542 5540 5538 5536 5533 5531 5529 5527 5524 5522
5499 5502 5505 5509 5512 5516 5520 5524 5527 5531 5535 5540 5543 5546 5547 5549 5550 5551 5551 5552 5552 5552 5552 5552 5551 5550 5548 5546 5545 5543 5540 5537 5534 5531 5528 5525 5523 5520 5518 5515 5513 5511 5510
5489 5492 5495 5498 5502 5505 5509 5513 5516 5520 5523 5527 5530 5532 5534 5535 5535 5536 5537 5539 5539 5539 5539 5538 5538 5537 5535 5533 5532 5530 5528 5525 5522 5520 5517 5514 5511 5508 5506 5503 5500 5498 5495
5480 5483 5485 5488 5492 5496 5499 5502 5506 5509 5512 5514 5516 5517 5519 5521 5521 5522 5523 5524 5525 5526 5525 5525 5525 5524 5522 5520 5518 5516 5515 5512 5510 5508 5506 5504 5501 5497 5495 5492 5489 5486 5483
5470 5472 5475 5477 5482 5486 5489 5493 5497 5499 5501 5503 5504 5505 5507 5508 5508 5509 5509 5510 5512 5511 5511 5511 5511 5511 5509 5507 5506 5504 5502 5500 5497 5496 5494 5492 5490 5486 5483 5481 5478 5475 5472
5461 5463 5465 5469 5472 5475 5478 5481 5485 5488 5490 5492 5492 5494 5495 5496 5497 5497 5496 5497 5498 5498 5497 5497 5498 5498 5497 5495 5493 5492 5491 5488 5486 5484 5482 5480 5479 5476 5472 5470 5468 5466 5464
5453 5454 5456 5459 5461 5464 5467 5470 5473 5476 5477 5479 5480 5481 5483 5484 5485 5484 5484 5485 5485 5484 5484 5484 5485 5485 5485 5483 5482 5481 5481 5479 5477 5475 5473 5470 5467 5465 5462 5460 5459 5457 5453
5444 5445 5447 5449 5450 5453 5455 5459 5461 5462 5464 5466 5468 5470 5471 5471 5472 5472 5472 5472 5472 5472 5472 5472 5472 5473 5473 5472 5471 5471 5470 5469 5467 5465 5463 5460 5457 5454 5452 5450 5448 5445 5441
5434 5434 5435 5437 5439 5441 5443 5446 5448 5450 5453 5455 5457 5458 5459 5460 5460 5461 5461 5461 5461 5462 5462 5461 5462 5462 5462 5462 5462 5461 5459 5458 5457 5455 5453 5450 5447 5445 5442 5440 5437 5434 5432
5423 5423 5423 5425 5427 5429 5431 5434 5437 5439 5441 5444 5445 5446 5448 5449 5449 5449 5450 5451 5452 5452 5452 5452 5453 5453 5452 5452 5451 5451 5450 5448 5447 5444 5442 5439 5437 5434 5433 5430 5428 5425 5423
5413 5412 5412 5413 5415 5417 5419 5422 5425 5427 5430 5432 5434 5435 5436 5437 5438 5438 5440 5441 5442 5443 5444 5444 5445 5444 5444 5444 5443 5443 5441 5440 5438 5435 5432 5429 5427 5425 5424 5422 5419 5417 5414
5404 5402 5402 5403 5404 5406 5407 5409 5412 5416 5419 5421 5422 5423 5425 5426 5426 5427 5428 5428 5429 5430 5431 5433 5434 5434 5435 5434 5434 5433 5432 5430 5428 5425 5424 5422 5420 5419 5417 5415 5412 5409 5407